Terug naar catalogus

STARLINK-35046

ActiefCommunicatieVLEO
NORAD 65701·PAYLOAD·🇺🇸 United States

Gelanceerd Sep 21, 2025 vanaf Cape Canaveral Space Force Station

Loading…

Volgende Passages (komende 24 uur)

TLE

VersSource: CelesTrak SupGP

Epoch: Sep 15, 2026, 03:58 UTC

1 65701C 25212AB  26258.16576389  .00005987  00000+0  17692-3 0  2583
2 65701  53.1575 182.6626 0001330  83.5563 300.5032 15.34384011    19

Volg STARLINK-35046 in realtime met AllMySat

Download on the App Store